Regional Weather Roundup
Issued by NWS

Home | Current Version | Previous Version | Text Only | Print | Product List | Glossary On
Versions: 1 2 3 4 5 6 7 8 9 10 11 12 13 14 15 16 17 18 19 20 21 22 23 24 25 26 27 28 29 30 31 32 33 34 35 36 37 38 39 40 41 42 43 44 45 46 47 48 49 50
000
ASUS44 KMEG 301610
RWRTN
TENNESSEE HOURLY STATE WEATHER ROUNDUP
NATIONAL WEATHER SERVICE MEMPHIS TN
1100 AM CDT MON MAR 30 2020

TNZ002-004-019-021-049-052-054-088>092-301700-
WEST TENNESSEE

CITY           SKY/WX    TMP DP  RH WIND       PRES   REMARKS
MEMPHIS INTL   LGT RAIN  60  52  74 SW5       30.27R
NWS MEMPHIS      N/A     58 N/A N/A MISG        N/A
JACKSON        FAIR      59  47  64 NW3       30.25R
DYERSBURG        N/A    N/A N/A N/A MISG        N/A
SOMERVILLE     SUNNY     61  50  67 CALM      30.23F
COVINGTON      SUNNY     59  54  82 CALM      30.24S
UNION CITY     SUNNY     59  39  47 NE3       30.24R
BOLIVAR        SUNNY     61  45  55 CALM      30.23F
PARIS          SUNNY     59  37  44 E5        30.24R
HUNTINGDON     SUNNY     59  46  63 NE3       30.24R
LEXINGTON      SUNNY     59  45  58 CALM      30.23S
SELMER         SUNNY     63  43  48 CALM      30.24S
SAVANNAH       SUNNY     61  46  59 CALM      30.23S
$$

TNZ008-025-027-028-033-062-065-066-301700-
NORTH MIDDLE TENNESSEE

CITY           SKY/WX    TMP DP  RH WIND       PRES   REMARKS
NASHVILLE      CLOUDY    62  40  44 N7        30.23S
DICKSON        SUNNY     57  37  47 NE6       30.22S
PORTLAND       SUNNY     59  39  47 N3        30.21F
CLARKSVILLE    FAIR      60  43  53 MISG      30.23F
LEBANON        SUNNY     61  37  41 CALM      30.20F
SMYRNA         FAIR      62  44  51 N8        30.23F
MURFREESBORO   SUNNY     63  41  45 CALM      30.20F
COOKEVILLE     SUNNY     63  43  48 N5        30.21F
LIVINGSTON     SUNNY     61  36  39 NW3G12    30.20F
GALLATIN       SUNNY     61  36  39 CALM      30.24F
CROSSVILLE     FAIR      62  32  32 NW15G24   30.21F
ROCKWOOD       SUNNY     64  32  29 NW13G22   30.19F
$$

TNZ061-075-076-078-094-096-097-301700-
SOUTH MIDDLE TENNESSEE

CITY           SKY/WX    TMP DP  RH WIND       PRES   REMARKS
LAWRENCEBURG   SUNNY     61  43  51 N5        30.22S
LEWISBURG      SUNNY     63  45  51 CALM      30.22R
FAYETTEVILLE   SUNNY     61  43  51 N5        30.22R
TULLAHOMA      SUNNY     61  41  48 CALM      30.21R
WINCHESTER     SUNNY     61  43  51 N7        30.21S
MCMINNVILLE    SUNNY     64  39  39 N8        30.21S
COLUMBIA       SUNNY     61  46  59 CALM      30.20F
SHELBYVILLE    SUNNY     63  43  48 N5        30.22R
$$

TNZ017-018-042-046-047-301700-
NORTHEAST TENNESSEE

CITY           SKY/WX    TMP DP  RH WIND       PRES   REMARKS
TRI CITIES     FAIR      65  37  35 NW10G23   30.15F
ELIZABETHTON   FAIR      64  36  34 NW10G23   30.15F
GREENEVILLE    SUNNY     63  34  34 W15G22    30.18F
$$

TNZ012-013-036-069-073-074-301700-
CENTRAL EAST TENNESSEE

CITY           SKY/WX    TMP DP  RH WIND       PRES   REMARKS
KNOXVILLE      PTSUNNY   65  36  34 CALM      30.18F
OAK RIDGE      FAIR      67  37  33 VRB3      30.19F
DOWNTOWN KNOXV SUNNY     68  37  32 VRB3      30.19F
GATLINBURG     SUNNY     68  37  32 VRB6G12   30.18F
MORRISTOWN     SUNNY     64  37  36 W10       30.17F
JACKSBORO      SUNNY     66  36  32 VRB7G15   30.22F
$$

TNZ083-085-099-301700-
SOUTHEAST TENNESSEE

CITY           SKY/WX    TMP DP  RH WIND       PRES   REMARKS
CHATTANOOGA    PTSUNNY   68  40  35 NE8       30.20S
DAYTON         SUNNY     66  41  39 N7        30.18F
$$

SKY/WX REPORTED AS FAIR MEANS FEW OR NO CLOUDS BELOW
12 THOUSAND FEET.




USA.gov is the U.S. government's official web portal to all federal, state and local government web resources and services.